Time,TemperatureF,DewpointF,PressureIn,WindDirection,WindDirectionDegrees,WindSpeedMPH,WindSpeedGustMPH,Humidity,HourlyPrecipIn,Conditions,Clouds,dailyrainin,SoftwareType,DateUTC
2013-11-26 00:00:00,64.1,60.1,30.09,ENE,59,3.0,5.0,87,0.00,,,0.00,Weather View 32 v70,2013-11-26 05:00:00,
2013-11-26 00:10:00,64.2,59.9,30.10,ENE,70,2.0,5.0,86,0.00,,,0.00,Weather View 32 v70,2013-11-26 05:10:00,
2013-11-26 00:15:00,64.2,59.9,30.10,ENE,70,2.0,5.0,86,0.00,,,0.00,Weather View 32 v70,2013-11-26 05:15:00,
2013-11-26 00:30:00,64.3,60.0,30.09,ENE,61,2.0,5.0,86,0.00,,,0.00,Weather View 32 v70,2013-11-26 05:30:00,
2013-11-26 00:40:00,64.4,59.8,30.08,ENE,59,4.0,5.0,85,0.00,,,0.00,Weather View 32 v70,2013-11-26 05:40:00,
2013-11-26 00:50:00,64.6,60.0,30.08,ENE,69,2.0,5.0,85,0.00,,,0.00,Weather View 32 v70,2013-11-26 05:50:00,
2013-11-26 01:00:00,64.6,60.0,30.08,ENE,70,1.0,5.0,85,0.00,,,0.00,Weather View 32 v70,2013-11-26 06:00:00,
2013-11-26 01:10:00,64.4,59.8,30.07,ENE,70,0.0,5.0,85,0.00,,,0.00,Weather View 32 v70,2013-11-26 06:10:00,
2013-11-26 01:16:00,64.4,59.8,30.07,ENE,70,0.0,5.0,85,0.00,,,0.00,Weather View 32 v70,2013-11-26 06:16:00,
2013-11-26 01:20:00,64.2,59.9,30.08,ENE,68,0.0,5.0,86,0.00,,,0.00,Weather View 32 v70,2013-11-26 06:20:00,
2013-11-26 01:30:00,63.0,59.1,30.08,ENE,68,0.0,5.0,87,0.00,,,0.00,Weather View 32 v70,2013-11-26 06:30:00,
2013-11-26 01:40:00,63.2,59.9,30.08,ENE,68,0.0,5.0,89,0.00,,,0.00,Weather View 32 v70,2013-11-26 06:40:00,
2013-11-26 01:49:00,62.9,59.6,30.07,ENE,68,0.0,4.0,89,0.00,,,0.00,Weather View 32 v70,2013-11-26 06:49:00,
2013-11-26 01:59:00,63.3,60.0,30.06,ENE,67,1.0,3.0,89,0.00,,,0.00,Weather View 32 v70,2013-11-26 06:59:00,
2013-11-26 02:10:00,63.8,59.8,30.05,NE,37,1.0,4.0,87,0.00,,,0.00,Weather View 32 v70,2013-11-26 07:10:00,
2013-11-26 02:16:00,63.8,59.8,30.05,NE,37,1.0,4.0,87,0.00,,,0.00,Weather View 32 v70,2013-11-26 07:16:00,
2013-11-26 02:20:00,63.8,59.8,30.04,NNE,26,4.0,5.0,87,0.00,,,0.00,Weather View 32 v70,2013-11-26 07:20:00,
2013-11-26 02:30:00,63.9,60.3,30.03,ENE,63,3.0,7.0,88,0.00,,,0.00,Weather View 32 v70,2013-11-26 07:30:00,
2013-11-26 02:39:00,64.3,60.7,30.02,ENE,61,7.0,8.0,88,0.00,,,0.00,Weather View 32 v70,2013-11-26 07:39:00,
2013-11-26 02:49:00,64.6,61.0,30.02,East,84,3.0,8.0,88,0.00,,,0.00,Weather View 32 v70,2013-11-26 07:49:00,
2013-11-26 02:59:00,64.7,61.1,30.03,East,85,2.0,8.0,88,0.00,,,0.00,Weather View 32 v70,2013-11-26 07:59:00,
2013-11-26 03:10:00,65.0,61.3,30.03,ENE,70,2.0,8.0,88,0.00,,,0.00,Weather View 32 v70,2013-11-26 08:10:00,
2013-11-26 03:17:00,65.0,61.3,30.03,ENE,70,2.0,8.0,88,0.00,,,0.00,Weather View 32 v70,2013-11-26 08:17:00,
2013-11-26 03:20:00,65.2,61.5,30.03,ENE,63,1.0,8.0,88,0.00,,,0.00,Weather View 32 v70,2013-11-26 08:20:00,
2013-11-26 03:29:00,65.2,61.9,30.03,ENE,65,2.0,8.0,89,0.00,,,0.00,Weather View 32 v70,2013-11-26 08:29:00,
2013-11-26 03:39:00,65.2,61.9,30.02,ENE,69,1.0,7.0,89,0.00,,,0.00,Weather View 32 v70,2013-11-26 08:39:00,
2013-11-26 03:49:00,65.2,61.9,30.02,ENE,69,2.0,5.0,89,0.00,,,0.00,Weather View 32 v70,2013-11-26 08:49:00,
2013-11-26 03:59:00,65.4,62.1,30.02,East,85,1.0,5.0,89,0.00,,,0.00,Weather View 32 v70,2013-11-26 08:59:00,
2013-11-26 04:09:00,65.5,62.5,30.01,ENE,74,2.0,5.0,90,0.00,,,0.00,Weather View 32 v70,2013-11-26 09:09:00,
2013-11-26 04:17:00,65.5,62.5,30.01,ENE,74,2.0,5.0,90,0.00,,,0.00,Weather View 32 v70,2013-11-26 09:17:00,
2013-11-26 04:19:00,65.6,62.6,30.00,ENE,67,1.0,5.0,90,0.00,,,0.00,Weather View 32 v70,2013-11-26 09:19:00,
2013-11-26 04:29:00,65.6,62.6,30.01,East,82,2.0,5.0,90,0.00,,,0.00,Weather View 32 v70,2013-11-26 09:29:00,
2013-11-26 04:39:00,65.6,62.6,30.00,East,84,2.0,5.0,90,0.00,,,0.00,Weather View 32 v70,2013-11-26 09:39:00,
2013-11-26 04:49:00,65.7,62.7,30.00,ENE,74,4.0,5.0,90,0.00,,,0.00,Weather View 32 v70,2013-11-26 09:49:00,
2013-11-26 04:59:00,65.8,63.1,30.00,ENE,76,4.0,5.0,91,0.00,,,0.00,Weather View 32 v70,2013-11-26 09:59:00,
2013-11-26 05:09:00,66.0,63.0,29.99,East,80,3.0,5.0,90,0.00,,,0.00,Weather View 32 v70,2013-11-26 10:09:00,
2013-11-26 05:17:00,66.0,63.0,29.99,East,80,3.0,5.0,90,0.00,,,0.00,Weather View 32 v70,2013-11-26 10:17:00,
2013-11-26 05:19:00,66.1,63.1,29.99,East,82,2.0,5.0,90,0.00,,,0.00,Weather View 32 v70,2013-11-26 10:19:00,
2013-11-26 05:29:00,66.4,63.7,29.99,East,99,2.0,5.0,91,0.00,,,0.00,Weather View 32 v70,2013-11-26 10:29:00,
2013-11-26 05:39:00,66.5,63.8,29.98,ENE,77,4.0,7.0,91,0.00,,,0.00,Weather View 32 v70,2013-11-26 10:39:00,
2013-11-26 05:49:00,66.8,64.1,29.98,ENE,75,3.0,7.0,91,0.00,,,0.00,Weather View 32 v70,2013-11-26 10:49:00,
2013-11-26 05:59:00,67.0,64.3,29.98,East,89,2.0,7.0,91,0.00,,,0.00,Weather View 32 v70,2013-11-26 10:59:00,
2013-11-26 06:09:00,67.1,64.4,29.97,East,80,5.0,7.0,91,0.00,,,0.00,Weather View 32 v70,2013-11-26 11:09:00,
2013-11-26 06:18:00,67.1,64.4,29.97,East,80,5.0,7.0,91,0.00,,,0.00,Weather View 32 v70,2013-11-26 11:18:00,
2013-11-26 06:29:00,67.4,65.0,29.97,East,94,2.0,7.0,92,0.00,,,0.00,Weather View 32 v70,2013-11-26 11:29:00,
2013-11-26 06:39:00,67.6,65.2,29.96,East,80,5.0,11.0,92,0.00,,,0.00,Weather View 32 v70,2013-11-26 11:39:00,
2013-11-26 06:49:00,67.7,65.3,29.96,East,90,2.0,11.0,92,0.01,,,0.01,Weather View 32 v70,2013-11-26 11:49:00,
2013-11-26 06:59:00,67.7,65.6,29.95,East,90,3.0,11.0,93,0.01,,,0.01,Weather View 32 v70,2013-11-26 11:59:00,
2013-11-26 07:09:00,67.7,65.6,29.95,ESE,105,3.0,11.0,93,0.01,,,0.01,Weather View 32 v70,2013-11-26 12:09:00,
2013-11-26 07:18:00,67.7,65.6,29.95,ESE,105,3.0,11.0,93,0.01,,,0.01,Weather View 32 v70,2013-11-26 12:18:00,
2013-11-26 07:29:00,67.9,65.8,29.94,East,79,5.0,11.0,93,0.01,,,0.01,Weather View 32 v70,2013-11-26 12:29:00,
2013-11-26 07:39:00,68.1,66.3,29.94,ESE,114,2.0,9.0,94,0.01,,,0.01,Weather View 32 v70,2013-11-26 12:39:00,
2013-11-26 07:49:00,68.0,66.2,29.95,SE,135,1.0,9.0,94,0.02,,,0.03,Weather View 32 v70,2013-11-26 12:49:00,
2013-11-26 07:59:00,67.9,66.1,29.96,ESE,118,1.0,9.0,94,0.10,,,0.11,Weather View 32 v70,2013-11-26 12:59:00,
2013-11-26 08:09:00,67.8,66.3,29.95,East,101,2.0,9.0,95,0.22,,,0.23,Weather View 32 v70,2013-11-26 13:09:00,
2013-11-26 08:19:00,67.8,66.3,29.95,East,101,2.0,9.0,95,0.22,,,0.23,Weather View 32 v70,2013-11-26 13:19:00,
2013-11-26 08:30:00,68.2,66.7,29.94,East,91,3.0,8.0,95,0.29,,,0.30,Weather View 32 v70,2013-11-26 13:30:00,
2013-11-26 08:39:00,68.3,66.8,29.94,East,101,5.0,10.0,95,0.33,,,0.34,Weather View 32 v70,2013-11-26 13:39:00,
2013-11-26 08:49:00,68.4,66.9,29.95,South,180,5.0,10.0,95,0.35,,,0.38,Weather View 32 v70,2013-11-26 13:49:00,
2013-11-26 08:59:00,68.6,67.1,29.94,ESE,117,4.0,11.0,95,0.29,,,0.40,Weather View 32 v70,2013-11-26 13:59:00,
2013-11-26 09:00:00,68.6,67.1,29.94,ESE,117,4.0,11.0,95,0.29,,,0.40,Weather View 32 v70,2013-11-26 14:00:00,
2013-11-26 09:09:00,68.6,67.1,29.94,East,84,5.0,11.0,95,0.19,,,0.42,Weather View 32 v70,2013-11-26 14:09:00,
2013-11-26 09:20:00,68.8,67.3,29.93,ESE,106,3.0,11.0,95,0.16,,,0.44,Weather View 32 v70,2013-11-26 14:20:00,
2013-11-26 09:29:00,68.8,67.3,29.93,ESE,103,7.0,11.0,95,0.14,,,0.44,Weather View 32 v70,2013-11-26 14:29:00,
2013-11-26 09:39:00,69.0,67.5,29.92,SE,128,5.0,11.0,95,0.12,,,0.46,Weather View 32 v70,2013-11-26 14:39:00,
2013-11-26 09:49:00,69.1,67.6,29.93,ESE,109,3.0,11.0,95,0.09,,,0.47,Weather View 32 v70,2013-11-26 14:49:00,
2013-11-26 09:59:00,69.2,67.7,29.92,ESE,115,1.0,10.0,95,0.07,,,0.47,Weather View 32 v70,2013-11-26 14:59:00,
2013-11-26 10:09:00,69.3,67.8,29.92,ESE,113,4.0,10.0,95,0.06,,,0.48,Weather View 32 v70,2013-11-26 15:09:00,
2013-11-26 10:19:00,69.3,67.8,29.92,ESE,121,3.0,10.0,95,0.05,,,0.49,Weather View 32 v70,2013-11-26 15:19:00,
2013-11-26 10:21:00,69.3,67.8,29.92,ESE,121,3.0,10.0,95,0.05,,,0.49,Weather View 32 v70,2013-11-26 15:21:00,
2013-11-26 10:29:00,69.3,67.8,29.91,ESE,103,4.0,10.0,95,0.05,,,0.49,Weather View 32 v70,2013-11-26 15:29:00,
2013-11-26 10:39:00,69.5,68.0,29.91,ESE,109,8.0,11.0,95,0.03,,,0.49,Weather View 32 v70,2013-11-26 15:39:00,
2013-11-26 10:49:00,69.5,68.0,29.91,SE,129,2.0,11.0,95,0.03,,,0.50,Weather View 32 v70,2013-11-26 15:49:00,
2013-11-26 10:59:00,69.5,68.3,29.91,SSE,151,6.0,11.0,96,0.03,,,0.50,Weather View 32 v70,2013-11-26 15:59:00,
2013-11-26 11:09:00,69.7,68.5,29.90,South,169,7.0,12.0,96,0.03,,,0.51,Weather View 32 v70,2013-11-26 16:09:00,
2013-11-26 11:19:00,70.0,68.5,29.90,SE,135,7.0,16.0,95,0.03,,,0.52,Weather View 32 v70,2013-11-26 16:19:00,
2013-11-26 11:21:00,70.0,68.5,29.90,SE,135,7.0,16.0,95,0.03,,,0.52,Weather View 32 v70,2013-11-26 16:21:00,
2013-11-26 11:29:00,70.1,68.6,29.89,SE,132,12.0,16.0,95,0.03,,,0.52,Weather View 32 v70,2013-11-26 16:29:00,
2013-11-26 11:39:00,70.3,68.8,29.89,ESE,119,7.0,16.0,95,0.03,,,0.52,Weather View 32 v70,2013-11-26 16:39:00,
2013-11-26 11:49:00,70.4,68.9,29.88,SE,139,11.0,16.0,95,0.02,,,0.52,Weather View 32 v70,2013-11-26 16:49:00,
2013-11-26 11:59:00,70.6,68.8,29.87,SE,127,6.0,17.0,94,0.02,,,0.52,Weather View 32 v70,2013-11-26 16:59:00,
2013-11-26 12:09:00,70.5,68.7,29.87,SSE,151,11.0,17.0,94,0.01,,,0.52,Weather View 32 v70,2013-11-26 17:09:00,
2013-11-26 12:19:00,70.7,68.9,29.86,SE,145,4.0,17.0,94,0.00,,,0.52,Weather View 32 v70,2013-11-26 17:19:00,
2013-11-26 12:22:00,70.7,68.9,29.86,SE,145,4.0,17.0,94,0.00,,,0.52,Weather View 32 v70,2013-11-26 17:22:00,
2013-11-26 12:29:00,70.7,68.9,29.85,South,175,7.0,17.0,94,0.00,,,0.52,Weather View 32 v70,2013-11-26 17:29:00,
2013-11-26 12:39:00,70.7,68.9,29.84,ESE,119,5.0,17.0,94,0.00,,,0.52,Weather View 32 v70,2013-11-26 17:39:00,
2013-11-26 12:49:00,70.6,68.8,29.83,SE,140,5.0,17.0,94,0.00,,,0.52,Weather View 32 v70,2013-11-26 17:49:00,
2013-11-26 12:59:00,71.1,69.6,29.83,SE,136,7.0,15.0,95,0.00,,,0.52,Weather View 32 v70,2013-11-26 17:59:00,
2013-11-26 13:09:00,71.1,69.3,29.82,SE,128,5.0,15.0,94,0.00,,,0.52,Weather View 32 v70,2013-11-26 18:09:00,
2013-11-26 13:19:00,71.5,69.7,29.82,SE,140,4.0,14.0,94,0.00,,,0.52,Weather View 32 v70,2013-11-26 18:19:00,
2013-11-26 13:22:00,71.5,69.7,29.82,SE,140,4.0,14.0,94,0.00,,,0.52,Weather View 32 v70,2013-11-26 18:22:00,
2013-11-26 13:29:00,71.9,69.8,29.82,SE,125,7.0,14.0,93,0.00,,,0.52,Weather View 32 v70,2013-11-26 18:29:00,
2013-11-26 13:39:00,72.0,69.9,29.81,SE,129,2.0,14.0,93,0.00,,,0.52,Weather View 32 v70,2013-11-26 18:39:00,
2013-11-26 13:49:00,72.7,70.5,29.80,SE,146,6.0,12.0,93,0.00,,,0.52,Weather View 32 v70,2013-11-26 18:49:00,
2013-11-26 13:59:00,73.0,70.2,29.79,SE,130,1.0,11.0,91,0.00,,,0.52,Weather View 32 v70,2013-11-26 18:59:00,
2013-11-26 14:09:00,74.1,70.6,29.78,SE,127,7.0,12.0,89,0.00,,,0.52,Weather View 32 v70,2013-11-26 19:09:00,
2013-11-26 14:19:00,74.3,70.8,29.78,SE,127,4.0,12.0,89,0.00,,,0.52,Weather View 32 v70,2013-11-26 19:19:00,
2013-11-26 14:23:00,74.3,70.8,29.78,SE,127,4.0,12.0,89,0.00,,,0.52,Weather View 32 v70,2013-11-26 19:23:00,
2013-11-26 14:29:00,74.7,70.9,29.78,South,173,9.0,14.0,88,0.00,,,0.52,Weather View 32 v70,2013-11-26 19:29:00,
2013-11-26 14:39:00,75.0,70.5,29.78,SE,146,8.0,14.0,86,0.00,,,0.52,Weather View 32 v70,2013-11-26 19:39:00,
2013-11-26 14:49:00,75.0,70.5,29.76,SSE,167,3.0,16.0,86,0.00,,,0.52,Weather View 32 v70,2013-11-26 19:49:00,
2013-11-26 14:59:00,75.5,71.0,29.76,SSE,148,8.0,16.0,86,0.00,,,0.52,Weather View 32 v70,2013-11-26 19:59:00,
2013-11-26 15:09:00,75.5,70.7,29.75,South,178,7.0,16.0,85,0.00,,,0.52,Weather View 32 v70,2013-11-26 20:09:00,
2013-11-26 15:19:00,75.2,70.4,29.75,SE,144,4.0,16.0,85,0.00,,,0.52,Weather View 32 v70,2013-11-26 20:19:00,
2013-11-26 15:24:00,75.2,70.4,29.75,SE,144,4.0,16.0,85,0.00,,,0.52,Weather View 32 v70,2013-11-26 20:24:00,
2013-11-26 15:29:00,75.5,70.7,29.74,SSE,167,4.0,16.0,85,0.00,,,0.52,Weather View 32 v70,2013-11-26 20:29:00,
2013-11-26 15:40:00,75.2,70.4,29.75,South,180,6.0,16.0,85,0.00,,,0.52,Weather View 32 v70,2013-11-26 20:40:00,
2013-11-26 15:49:00,75.4,70.6,29.75,South,171,4.0,16.0,85,0.00,,,0.52,Weather View 32 v70,2013-11-26 20:49:00,
2013-11-26 15:59:00,75.7,70.8,29.75,South,171,7.0,16.0,85,0.00,,,0.52,Weather View 32 v70,2013-11-26 20:59:00,
2013-11-26 16:09:00,75.6,71.1,29.75,SSE,162,4.0,15.0,86,0.00,,,0.52,Weather View 32 v70,2013-11-26 21:09:00,
2013-11-26 16:19:00,74.9,70.4,29.75,SSE,157,4.0,12.0,86,0.00,,,0.52,Weather View 32 v70,2013-11-26 21:19:00,
2013-11-26 16:25:00,74.9,70.4,29.75,SSE,157,4.0,12.0,86,0.00,,,0.52,Weather View 32 v70,2013-11-26 21:25:00,
2013-11-26 16:29:00,74.7,70.6,29.75,SSE,155,5.0,11.0,87,0.00,,,0.52,Weather View 32 v70,2013-11-26 21:29:00,
2013-11-26 16:39:00,74.3,70.5,29.75,SSE,158,1.0,11.0,88,0.00,,,0.52,Weather View 32 v70,2013-11-26 21:39:00,
2013-11-26 16:49:00,73.9,70.1,29.75,SSE,162,3.0,9.0,88,0.00,,,0.52,Weather View 32 v70,2013-11-26 21:49:00,
2013-11-26 16:59:00,73.2,69.7,29.74,SSE,162,2.0,8.0,89,0.00,,,0.52,Weather View 32 v70,2013-11-26 21:59:00,
2013-11-26 17:09:00,73.4,70.3,29.75,SSE,163,1.0,8.0,90,0.00,,,0.52,Weather View 32 v70,2013-11-26 22:09:00,
2013-11-26 17:19:00,74.1,70.6,29.75,SSE,161,6.0,9.0,89,0.00,,,0.52,Weather View 32 v70,2013-11-26 22:19:00,
2013-11-26 17:25:00,74.1,70.6,29.75,SSE,161,6.0,9.0,89,0.00,,,0.52,Weather View 32 v70,2013-11-26 22:25:00,
2013-11-26 17:39:00,73.4,69.9,29.75,SSE,161,1.0,10.0,89,0.00,,,0.52,Weather View 32 v70,2013-11-26 22:39:00,
2013-11-26 17:49:00,73.1,70.0,29.75,South,169,2.0,10.0,90,0.00,,,0.52,Weather View 32 v70,2013-11-26 22:49:00,
2013-11-26 17:59:00,71.7,68.9,29.75,SE,144,0.0,10.0,91,0.00,,,0.52,Weather View 32 v70,2013-11-26 22:59:00,
2013-11-26 18:09:00,71.0,69.2,29.75,SE,144,0.0,10.0,94,0.00,,,0.52,Weather View 32 v70,2013-11-26 23:09:00,
2013-11-26 18:19:00,71.3,69.5,29.75,SE,146,0.0,10.0,94,0.00,,,0.52,Weather View 32 v70,2013-11-26 23:19:00,
2013-11-26 18:26:00,71.3,69.5,29.75,SE,146,0.0,10.0,94,0.00,,,0.52,Weather View 32 v70,2013-11-26 23:26:00,
2013-11-26 18:29:00,71.3,69.5,29.75,SE,146,0.0,7.0,94,0.00,,,0.52,Weather View 32 v70,2013-11-26 23:29:00,
2013-11-26 18:39:00,71.0,69.2,29.75,SE,146,0.0,5.0,94,0.00,,,0.52,Weather View 32 v70,2013-11-26 23:39:00,
2013-11-26 18:49:00,71.1,69.6,29.75,SE,146,0.0,4.0,95,0.00,,,0.52,Weather View 32 v70,2013-11-26 23:49:00,
2013-11-26 18:59:00,71.4,69.6,29.75,SE,146,0.0,2.0,94,0.00,,,0.52,Weather View 32 v70,2013-11-26 23:59:00,
2013-11-26 19:09:00,71.0,69.2,29.75,SSE,153,0.0,2.0,94,0.00,,,0.52,Weather View 32 v70,2013-11-27 00:09:00,
2013-11-26 19:19:00,71.9,70.1,29.76,SSE,168,1.0,3.0,94,0.00,,,0.52,Weather View 32 v70,2013-11-27 00:19:00,
2013-11-26 19:26:00,71.9,70.1,29.76,SSE,168,1.0,3.0,94,0.00,,,0.52,Weather View 32 v70,2013-11-27 00:26:00,
2013-11-26 19:29:00,72.2,70.4,29.75,South,171,0.0,3.0,94,0.00,,,0.52,Weather View 32 v70,2013-11-27 00:29:00,
2013-11-26 19:39:00,72.3,70.5,29.75,South,174,0.0,3.0,94,0.01,,,0.53,Weather View 32 v70,2013-11-27 00:39:00,
2013-11-26 19:49:00,72.5,70.7,29.75,South,174,0.0,3.0,94,0.02,,,0.54,Weather View 32 v70,2013-11-27 00:49:00,
2013-11-26 19:59:00,72.3,70.8,29.75,South,174,0.0,3.0,95,0.02,,,0.54,Weather View 32 v70,2013-11-27 00:59:00,
2013-11-26 20:09:00,72.1,70.6,29.76,South,174,0.0,3.0,95,0.04,,,0.56,Weather View 32 v70,2013-11-27 01:09:00,
2013-11-26 20:19:00,72.1,70.6,29.76,South,178,1.0,3.0,95,0.06,,,0.58,Weather View 32 v70,2013-11-27 01:19:00,
2013-11-26 20:27:00,72.1,70.6,29.76,South,178,1.0,3.0,95,0.06,,,0.58,Weather View 32 v70,2013-11-27 01:27:00,
2013-11-26 20:29:00,71.8,70.3,29.76,SSE,162,2.0,3.0,95,0.09,,,0.61,Weather View 32 v70,2013-11-27 01:29:00,
2013-11-26 20:39:00,71.1,69.6,29.75,SSE,163,2.0,7.0,95,0.10,,,0.63,Weather View 32 v70,2013-11-27 01:39:00,
2013-11-26 20:49:00,71.7,70.5,29.75,South,187,0.0,7.0,96,0.10,,,0.64,Weather View 32 v70,2013-11-27 01:49:00,
2013-11-26 20:59:00,71.9,70.7,29.75,South,180,0.0,7.0,96,0.12,,,0.66,Weather View 32 v70,2013-11-27 01:59:00,
2013-11-26 21:09:00,71.6,70.4,29.75,SSE,163,2.0,7.0,96,0.13,,,0.69,Weather View 32 v70,2013-11-27 02:09:00,
2013-11-26 21:19:00,71.1,69.9,29.76,SSE,165,9.0,9.0,96,0.17,,,0.75,Weather View 32 v70,2013-11-27 02:19:00,
2013-11-26 21:28:00,71.1,69.9,29.76,SSE,165,9.0,9.0,96,0.17,,,0.75,Weather View 32 v70,2013-11-27 02:28:00,
2013-11-26 21:29:00,71.3,70.1,29.75,SSW,200,7.0,19.0,96,0.29,,,0.90,Weather View 32 v70,2013-11-27 02:29:00,
2013-11-26 21:39:00,71.7,70.2,29.73,SE,144,13.0,19.0,95,0.31,,,0.94,Weather View 32 v70,2013-11-27 02:39:00,
2013-11-26 21:49:00,72.3,70.8,29.75,South,177,2.0,21.0,95,0.32,,,0.96,Weather View 32 v70,2013-11-27 02:49:00,
2013-11-26 21:59:00,72.4,70.6,29.74,South,182,1.0,21.0,94,0.31,,,0.97,Weather View 32 v70,2013-11-27 02:59:00,
2013-11-26 22:09:00,71.7,69.9,29.73,SSE,163,4.0,21.0,94,0.29,,,0.98,Weather View 32 v70,2013-11-27 03:09:00,
2013-11-26 22:19:00,71.6,70.4,29.73,SSE,156,3.0,21.0,96,0.24,,,0.99,Weather View 32 v70,2013-11-27 03:19:00,
2013-11-26 22:28:00,71.6,70.4,29.73,SSE,156,3.0,21.0,96,0.24,,,0.99,Weather View 32 v70,2013-11-27 03:28:00,
2013-11-26 22:29:00,71.8,70.3,29.72,South,171,2.0,21.0,95,0.10,,,1.00,Weather View 32 v70,2013-11-27 03:29:00,
2013-11-26 22:39:00,71.3,69.8,29.72,SSE,161,2.0,21.0,95,0.07,,,1.01,Weather View 32 v70,2013-11-27 03:39:00,
2013-11-26 22:49:00,71.5,70.3,29.72,SSE,168,5.0,7.0,96,0.06,,,1.02,Weather View 32 v70,2013-11-27 03:49:00,
2013-11-26 22:59:00,71.8,70.6,29.73,SSE,164,5.0,7.0,96,0.05,,,1.02,Weather View 32 v70,2013-11-27 03:59:00,
2013-11-26 23:09:00,71.8,70.6,29.72,South,179,4.0,7.0,96,0.06,,,1.04,Weather View 32 v70,2013-11-27 04:09:00,
2013-11-26 23:19:00,71.4,70.2,29.71,South,180,3.0,7.0,96,0.09,,,1.08,Weather View 32 v70,2013-11-27 04:19:00,
2013-11-26 23:29:00,71.4,70.2,29.71,South,180,3.0,7.0,96,0.09,,,1.08,Weather View 32 v70,2013-11-27 04:29:00,
2013-11-26 23:39:00,71.6,70.4,29.71,South,184,4.0,7.0,96,0.12,,,1.13,Weather View 32 v70,2013-11-27 04:39:00,
2013-11-26 23:49:00,71.7,70.5,29.70,SSW,195,2.0,9.0,96,0.13,,,1.15,Weather View 32 v70,2013-11-27 04:49:00,
2013-11-26 23:59:00,71.7,70.5,29.70,SSW,197,4.0,9.0,96,0.18,,,1.21,Weather View 32 v70,2013-11-27 04:59:00,